Regional Weather Roundup
Issued by NWS

Home | Current Version | Previous Version | Text Only | Print | Product List | Glossary Off
Versions: 1 2 3 4 5 6 7 8 9 10 11 12 13 14 15 16 17 18 19 20 21 22 23 24 25 26 27 28 29 30 31 32 33 34 35 36 37 38 39 40 41 42 43 44 45 46

000
ASUS45 KBOU 190210
RWRCO

WEATHER ROUNDUP FOR COLORADO
NATIONAL WEATHER SERVICE PUEBLO CO
800 PM MDT WED APR 18 2018

NOTE: "FAIR" INDICATES FEW OR NO CLOUDS BELOW 12000 FEET WITH NO
SIGNIFICANT WEATHER AND/OR OBSTRUCTIONS TO VISIBILITY.

COZ001>005-013-030-031-190300-
...NORTHWEST COLORADO...

CITY           SKY/WX    TMP DP  RH WIND       PRES   REMARKS
CRAIG          PTCLDY    40  23  50 SE5       30.13F
HAYDEN         PTCLDY    46  10  23 NE6       30.15F
MEEKER         PTCLDY    43  23  45 E5        30.10S
RABBIT EARS PA NOT AVBL
STEAMBOAT SPGS FAIR      44  14  30 NW7       30.15S
WALDEN         FAIR      37  -2  18 CALM      30.21S
$$

COZ006>008-011-190300-
...WEST CENTRAL VALLEYS...

CITY           SKY/WX    TMP DP  RH WIND       PRES   REMARKS
GRAND JUNCTION CLEAR     51  10  19 NW7       30.08S
MONTROSE       MOCLDY    53  -3  10 NW5       30.12R
EAGLE          MOCLDY    50  16  25 S3        30.14S
RIFLE          PTCLDY    53  18  25 SW3       30.09S
DELTA          NOT AVBL
NUCLA          FAIR      54  -6   8 W9        30.13S
$$

COZ017>023-064>068-190300-
...SOUTHWEST COLORADO...

CITY           SKY/WX    TMP DP  RH WIND       PRES   REMARKS
DURANGO        CLEAR     45  -8  10 NE9       30.15S
CORTEZ         PTCLDY    49  -8   9 S7        30.12S
PAGOSA SPRINGS FAIR      40   1  19 CALM      30.20S
TELLURIDE      PTCLDY    44   1  16 SW6       30.22R
WOLF CREEK PAS CLEAR     28  -6  22 S17G25    30.36F WCI  16
$$

COZ009-010-012-014-032>034-037-058>063-190300-
...CENTRAL COLORADO...

CITY           SKY/WX    TMP DP  RH WIND       PRES   REMARKS
ASPEN          MOCLDY    43  16  33 CALM      30.14R
BUENA VISTA    FAIR      45  -2  13 SE9G20    30.21R
COPPER MTN     NOT AVBL
BERTHOUD PASS  FAIR      14   5  67 SW12G38   30.29F WCI   0
COTTONWOOD PAS PTCLDY    43  -6  13 SE20G30   30.24R
GUNNISON       MOCLDY    48  10  21 SE6       30.14R
KREMMLING      MOCLDY    46   9  21 CALM      30.17S
LEADVILLE      MOCLDY    36   2  23 SE6       30.22R
MONARCH PASS   PTCLDY    28   0  29 E9        30.42R WCI  20
SALIDA         FAIR      48  -2  12 SE17G24   30.27R
SUNLIGHT       PTCLDY    30  12  47 CALM      30.27F
WILKERSON PASS PTCLDY    28  -6  22 S8        30.35R WCI  20
$$

COZ069>075-190300-
...SAN LUIS VALLEY/SANGRE DE CRISTO MOUNTAINS...

CITY           SKY/WX    TMP DP  RH WIND       PRES   REMARKS
ALAMOSA        CLEAR     49  -7   9 SW10      30.16R
DEL NORTE      FAIR      42   0  17 NW5       30.18F
LA VETA PASS   CLEAR     32   3  29 N14G21    30.42R WCI  22
SAGUACHE       NOT AVBL
$$

COZ035-036-038>040-190300-
...NORTHERN COLORADO FRONT RANGE...

CITY           SKY/WX    TMP DP  RH WIND       PRES   REMARKS
DENVER INTL AP PTCLDY    42  12  29 E9        30.23R
DMNS CITY PARK NOT AVBL
AURORA         PTCLDY    43  10  26 E9        30.24R
FRONT RANGE AP PTCLDY    45   9  23 E18       30.24R
ERIE MUNI ARPT FAIR      48  10  22 SE5       30.27R
BOULDER MUN AP FAIR      50  14  23 E3        30.21S
CENTENNIAL     PTCLDY    45  12  26 E8        30.23R
BROOMFIELD     PTCLDY    48   9  20 E8        30.23R
LOVELAND       PTCLDY    49  13  23 SE7       30.22R
LONGMONT       FAIR      51  11  20 E5        30.23R
$$

COZ041-046-047-076>085-087-088-190300-
...PIKES PEAK/PALMER DIVIDE AND SOUTHERN FOOTHILLS...

CITY           SKY/WX    TMP DP  RH WIND       PRES   REMARKS
COLO. SPRINGS  PTCLDY    46   1  15 SE8       30.25R
A. F. ACADEMY  CLEAR     47  -5  11 SE15      30.24R
SCHRIEVER AFB  NOT AVBL
CHEYENNE MTN   NOT AVBL
ELLICOTT         N/A    N/A N/A N/A SE10      30.25R
FALCON         FAIR      38   1  20 SE5       30.28R
FORT CARSON    CLEAR     45   0  15 SE10      30.23R
LIMON          CLEAR     36  13  38 E9        30.25R
MONUMENT HILL  CLEAR     36   9  32 E8        30.27R
CANON CITY     FAIR      52   3  14 E9        30.22R
WALSENBURG     FAIR      43   1  17 E7        30.24R
TRINIDAD       CLEAR     48   3  15 E8        30.23R
$$

COZ042>045-048>051-090-091-190300-
...NORTHEAST COLORADO...

CITY           SKY/WX    TMP DP  RH WIND       PRES   REMARKS
GREELEY ARPT   CLEAR     48  17  29 E8        30.23R
AKRON          CLEAR     40  19  43 NE8       30.24R
BURLINGTON     CLEAR     46  18  32 N6        30.25R
WRAY           FAIR      43  23  45 N9        30.24S
YUMA           NOT AVBL
STERLING       FAIR      46  19  34 NE9       30.21F
HOLYOKE        FAIR      46  23  39 NW6       30.24R
FORT MORGAN    FAIR      42  12  29 NE8       30.25R
$$

COZ086-089-092>099-190300-
...SOUTHEAST COLORADO...

CITY           SKY/WX    TMP DP  RH WIND       PRES   REMARKS
PUEBLO         CLEAR     55   5  13 SE8       30.22R
LA JUNTA       CLEAR     51   5  15 E9        30.21S
LAMAR          CLEAR     49  13  23 MISG      30.21R
SPRINGFIELD      N/A     44   7  21 NE9       30.24R
$$





USA.gov is the U.S. government's official web portal to all federal, state and local government web resources and services.